DW1436 Weather Reports


Display with metric or nautical units.
time (UTC)temp
F
wind
direction
speed
MPH
gust
MPH
rain 1hr
in
rain 24hr
in
rain mn
in
humidity
%
barometer
mb
20260502130524 67 177 2.0 7.0 0.00 0.00 0.00 52 1014.0
20260502123504 66 85 1.0 8.0 0.00 0.00 0.00 55 1014.4
20260502123024 66 64 1.0 5.0 0.00 0.00 0.00 55 1014.4
20260502122504 67 77 1.0 5.0 0.00 0.00 0.00 55 1014.4
20260502122003 67 108 1.0 7.0 0.00 0.00 0.00 55 1014.4
20260502121504 68 143 1.0 7.0 0.00 0.00 0.00 53 1014.4
20260502121005 68 123 2.0 7.0 0.00 0.00 0.00 52 1014.5
20260502120503 69 109 2.0 7.0 0.00 0.00 0.00 52 1014.4
20260502115504 69 73 2.0 10.0 0.00 0.00 0.00 55 1014.4
20260502115004 69 71 1.0 10.0 0.00 0.00 0.00 55 1014.4
20260502114525 69 92 2.0 10.0 0.00 0.00 0.00 53 1014.3
20260502114004 68 80 3.0 10.0 0.00 0.00 0.00 56 1014.4
20260502113503 68 57 3.0 8.0 0.00 0.00 0.00 55 1014.4
20260502113003 67 153 3.0 11.0 0.00 0.00 0.00 59 1014.5
20260502112503 67 217 4.0 11.0 0.00 0.00 0.00 56 1014.6
20260502112004 67 212 4.0 11.0 0.00 0.00 0.00 58 1014.6
20260502111503 66 211 3.0 11.0 0.00 0.00 0.00 58 1014.5
20260502111003 66 221 3.0 10.0 0.00 0.00 0.00 59 1014.7
20260502110525 66 237 3.0 8.0 0.00 0.00 0.00 59 1014.8
20260502110003 66 197 3.0 8.0 0.00 0.00 0.00 58 1014.7
20260502105503 66 187 2.0 7.0 0.00 0.00 0.00 58 1014.7
20260502105004 66 205 1.0 8.0 0.00 0.00 0.00 58 1014.7
20260502104504 66 237 2.0 8.0 0.00 0.00 0.00 59 1014.7
20260502104003 66 250 2.0 8.0 0.00 0.00 0.00 60 1014.7
20260502103503 65 208 2.0 8.0 0.00 0.00 0.00 61 1014.7
20260502103003 65 177 1.0 7.0 0.00 0.00 0.00 61 1014.7
20260502102505 65 113 1.0 11.0 0.00 0.00 0.00 59 1014.7
20260502102024 65 104 2.0 11.0 0.00 0.00 0.00 59 1014.7
20260502101504 65 178 2.0 11.0 0.00 0.00 0.00 60 1014.8
20260502101004 65 186 2.0 11.0 0.00 0.00 0.00 59 1014.8
20260502100504 65 130 2.0 7.0 0.00 0.00 0.00 62 1014.9
20260502091503 63 193 2.0 8.0 0.00 0.00 0.00 68 1015.3
20260502091004 62 212 3.0 5.0 0.00 0.00 0.00 68 1015.3
20260502090504 62 176 3.0 5.0 0.00 0.00 0.00 69 1015.3
20260502071525 55 224 1.0 8.0 0.00 0.00 0.00 82 1015.3
20260502071004 54 229 1.0 7.0 0.00 0.00 0.00 83 1015.4
20260502070503 54 236 1.0 5.0 0.00 0.00 0.00 84 1015.4
20260502070004 53 243 1.0 4.0 0.00 0.00 0.00 85 1015.4
20260502065504 53 244 1.0 4.0 0.00 0.00 0.00 86 1015.5
20260502065004 52 244 1.0 5.0 0.00 0.00 0.00 86 1015.5
20260502064503 52 236 1.0 5.0 0.00 0.00 0.00 86 1015.5
20260502064004 51 226 1.0 3.0 0.00 0.00 0.00 87 1015.5
20260502063503 51 224 1.0 3.0 0.00 0.00 0.00 87 1015.6
20260502063003 51 223 0.0 3.0 0.00 0.00 0.00 86 1015.6
20260502062504 51 208 0.0 3.0 0.00 0.00 0.00 86 1015.5
20260502062004 51 170 0.0 4.0 0.00 0.00 0.00 86 1015.5
20260502061503 51 197 1.0 4.0 0.00 0.00 0.00 86 1015.5
20260502061025 50 215 1.0 4.0 0.00 0.00 0.00 86 1015.4
20260502060524 50 218 0.0 4.0 0.00 0.00 0.00 86 1015.4
20260502060003 50 222 1.0 3.0 0.00 0.00 0.00 86 1015.4
20260502055503 50 234 1.0 5.0 0.00 0.00 0.00 86 1015.5
20260502055004 50 231 1.0 5.0 0.00 0.00 0.00 86 1015.5
20260502054503 50 223 1.0 5.0 0.00 0.00 0.00 86 1015.5
20260502054004 50 214 1.0 5.0 0.00 0.00 0.00 86 1015.4
20260502053504 50 212 1.0 4.0 0.00 0.00 0.00 86 1015.4
20260502053003 50 226 1.0 4.0 0.00 0.00 0.00 86 1015.5
20260502052503 50 224 1.0 3.0 0.00 0.00 0.00 86 1015.5
20260502052003 50 215 1.0 4.0 0.00 0.00 0.00 86 1015.5
20260502051504 50 207 1.0 4.0 0.00 0.00 0.00 86 1015.5
20260502051004 50 209 1.0 4.0 0.00 0.00 0.00 86 1015.5
20260502050525 50 216 1.0 4.0 0.00 0.00 0.00 86 1015.6
20260502050004 50 221 1.0 4.0 0.00 0.00 0.00 86 1015.5
20260502045525 49 222 1.0 4.0 0.00 0.00 0.00 86 1015.5
20260502045004 49 217 1.0 4.0 0.00 0.00 0.00 86 1015.6
20260502044503 50 211 0.0 4.0 0.00 0.00 0.00 85 1015.6
20260502044003 50 0 1.0 1.0 0.00 0.00 0.00 85 1015.7
20260502043503 50 0 3.0 3.0 0.00 0.00 0.00 85 1015.6
20260502043025 50 0 3.0 3.0 0.00 0.00 0.00 85 1015.6
20260502042503 50 0 0.0 3.0 0.00 0.00 0.00 84 1015.6
20260502042003 50 206 0.0 3.0 0.00 0.00 0.00 83 1015.6
20260502041524 50 211 0.0 3.0 0.00 0.00 0.00 83 1015.6
20260502041004 51 236 1.0 1.0 0.00 0.00 0.00 83 1015.6
20260502040504 51 235 1.0 3.0 0.00 0.00 0.00 83 1015.6
20260502040025 51 229 1.0 3.0 0.00 0.00 0.00 83 1015.5
20260502035504 51 0 0.0 3.0 0.00 0.00 0.00 82 1015.6
20260502035003 52 227 0.0 3.0 0.00 0.00 0.00 82 1015.7
20260502034504 52 214 1.0 4.0 0.00 0.00 0.00 82 1015.6
20260502034003 52 205 1.0 4.0 0.00 0.00 0.00 82 1015.5
20260502033503 52 209 0.0 4.0 0.00 0.00 0.00 82 1015.5
20260502033004 52 0 4.0 4.0 0.00 0.00 0.00 82 1015.5
20260502032525 52 0 3.0 3.0 0.00 0.00 0.00 82 1015.6
20260502032004 52 0 3.0 3.0 0.00 0.00 0.00 81 1015.7
20260502031504 53 0 4.0 4.0 0.00 0.00 0.00 81 1015.6
20260502031003 53 0 4.0 4.0 0.00 0.00 0.00 81 1015.7
20260502030504 53 0 0.0 5.0 0.00 0.00 0.00 81 1015.7
20260502030025 53 0 0.0 5.0 0.00 0.00 0.00 80 1015.8
20260502025503 53 0 0.0 3.0 0.00 0.00 0.00 81 1015.8
20260502025025 53 0 0.0 3.0 0.00 0.00 0.00 81 1015.7
20260502024503 54 0 0.0 3.0 0.00 0.00 0.00 80 1015.8
20260502024003 54 0 0.0 3.0 0.00 0.00 0.00 80 1015.8
20260502023503 54 0 0.0 1.0 0.00 0.00 0.00 80 1015.8
20260502023003 54 0 0.0 3.0 0.00 0.00 0.00 80 1015.8
20260502022503 54 0 0.0 3.0 0.00 0.00 0.00 80 1015.9
20260502022003 54 157 0.0 3.0 0.00 0.00 0.00 80 1015.9
20260502021525 54 155 0.0 3.0 0.00 0.00 0.00 80 1015.9
20260502021004 54 197 1.0 4.0 0.00 0.00 0.00 80 1016.0
20260502020504 54 239 1.0 4.0 0.00 0.00 0.00 80 1016.0
20260502020003 54 237 1.0 4.0 0.00 0.00 0.00 80 1016.0
20260502015503 54 0 4.0 4.0 0.00 0.00 0.00 80 1016.0
20260502015024 54 0 3.0 3.0 0.00 0.00 0.00 80 1016.1
20260502014504 54 0 4.0 4.0 0.00 0.00 0.00 81 1016.2
20260502014003 55 0 4.0 4.0 0.00 0.00 0.00 81 1016.2
20260502013503 55 0 3.0 3.0 0.00 0.00 0.00 81 1016.3
20260502013003 55 0 4.0 4.0 0.00 0.00 0.00 80 1016.3
20260502012503 55 0 4.0 4.0 0.00 0.00 0.00 80 1016.4
20260502012004 55 0 3.0 3.0 0.00 0.00 0.00 80 1016.4
20260502011525 55 0 3.0 3.0 0.00 0.00 0.00 80 1016.4
20260502011003 56 0 3.0 3.0 0.00 0.00 0.00 81 1016.4
20260502010503 56 0 3.0 3.0 0.00 0.00 0.00 81 1016.5
20260502010003 56 0 1.0 1.0 0.00 0.00 0.00 81 1016.5
20260502005504 56 0 1.0 1.0 0.00 0.00 0.00 81 1016.6
20260502005003 56 0 1.0 1.0 0.00 0.00 0.00 81 1016.5
20260502004504 56 0 1.0 1.0 0.00 0.00 0.00 81 1016.6
20260502004004 56 0 1.0 1.0 0.00 0.00 0.00 81 1016.7
20260502003504 56 0 3.0 3.0 0.00 0.00 0.00 81 1016.6
20260502003003 56 0 3.0 3.0 0.00 0.00 0.00 81 1016.6
20260502002504 56 0 3.0 3.0 0.00 0.00 0.00 81 1016.6
20260502002004 56 0 0.0 3.0 0.00 0.00 0.00 81 1016.7
20260502001503 56 0 0.0 3.0 0.00 0.00 0.00 81 1016.6
20260502001003 56 133 0.0 3.0 0.00 0.00 0.00 81 1016.6
20260502000503 57 160 0.0 3.0 0.00 0.00 0.00 81 1016.7
20260502000004 57 108 1.0 5.0 0.00 0.00 0.00 80 1016.7
20260501235526 57 79 1.0 5.0 0.00 0.00 0.00 80 1016.8
20260501235003 57 86 1.0 5.0 0.00 0.00 0.00 80 1016.8
20260501234503 57 92 1.0 5.0 0.00 0.00 0.00 79 1016.8
20260501234004 57 89 1.0 4.0 0.00 0.00 0.00 79 1016.9
20260501233504 58 70 1.0 8.0 0.00 0.00 0.00 79 1016.9
20260501233025 58 63 1.0 8.0 0.00 0.00 0.00 79 1016.8
20260501232503 58 47 1.0 10.0 0.00 0.00 0.00 78 1016.7
20260501232004 58 45 1.0 10.0 0.00 0.00 0.00 77 1016.7
20260501231503 58 42 1.0 5.0 0.00 0.00 0.00 78 1016.8
20260501231025 58 0 0.0 4.0 0.00 0.00 0.00 78 1016.9
20260501230504 58 96 0.0 3.0 0.00 0.00 0.00 78 1016.9
20260501230004 58 85 0.0 3.0 0.00 0.00 0.00 78 1017.0
20260501225503 58 64 1.0 3.0 0.00 0.00 0.00 78 1016.9
20260501225003 58 64 1.0 3.0 0.00 0.00 0.00 78 1016.9
20260501224503 58 82 1.0 4.0 0.00 0.00 0.00 77 1016.9
20260501224024 58 115 0.0 4.0 0.00 0.00 0.00 77 1016.8
20260501223504 58 0 0.0 4.0 0.00 0.00 0.00 76 1016.8
20260501223003 58 0 0.0 4.0 0.00 0.00 0.00 76 1016.8
20260501222504 59 0 0.0 3.0 0.00 0.00 0.00 75 1016.9
20260501222003 59 0 0.0 3.0 0.00 0.00 0.00 75 1016.9
20260501221505 59 0 0.0 4.0 0.00 0.00 0.00 74 1016.8
20260501221004 59 0 0.0 4.0 0.00 0.00 0.00 74 1016.8
20260501220503 59 0 0.0 3.0 0.00 0.00 0.00 73 1016.8
20260501220003 59 53 0.0 4.0 0.00 0.00 0.00 73 1016.8
20260501215504 59 58 0.0 5.0 0.00 0.00 0.00 73 1016.8
20260501215005 59 55 1.0 5.0 0.00 0.00 0.00 72 1016.8
20260501214503 59 51 1.0 5.0 0.00 0.00 0.00 71 1016.8
20260501214004 60 40 1.0 5.0 0.00 0.00 0.00 71 1016.9
20260501213503 60 43 1.0 5.0 0.00 0.00 0.00 70 1017.0
20260501213003 60 62 1.0 5.0 0.00 0.00 0.00 70 1016.9
20260501212504 60 82 1.0 4.0 0.00 0.00 0.00 69 1016.9
20260501212003 60 81 1.0 3.0 0.00 0.00 0.00 69 1016.9
20260501211524 60 74 1.0 5.0 0.00 0.00 0.00 69 1016.9
20260501211003 60 73 1.0 8.0 0.00 0.00 0.00 69 1016.9
20260501210503 60 76 1.0 8.0 0.00 0.00 0.00 68 1017.0
20260501210004 60 62 1.0 8.0 0.00 0.00 0.00 67 1017.0
20260501205504 60 63 1.0 8.0 0.00 0.00 0.00 67 1016.9
20260501205024 60 67 1.0 5.0 0.00 0.00 0.00 66 1017.0
20260501204524 61 69 1.0 5.0 0.00 0.00 0.00 65 1017.0
20260501204003 61 68 2.0 5.0 0.00 0.00 0.00 64 1017.0
20260501203503 61 55 2.0 5.0 0.00 0.00 0.00 64 1017.1
20260501203003 61 55 1.0 5.0 0.00 0.00 0.00 63 1017.2
20260501202525 62 57 1.0 5.0 0.00 0.00 0.00 62 1017.2
20260501202003 62 59 1.0 7.0 0.00 0.00 0.00 61 1017.1
20260501201504 62 51 1.0 7.0 0.00 0.00 0.00 60 1017.1
20260501201003 62 51 1.0 5.0 0.00 0.00 0.00 60 1017.0
20260501200503 63 67 0.0 4.0 0.00 0.00 0.00 59 1017.0
20260501200003 63 0 4.0 4.0 0.00 0.00 0.00 59 1017.0
20260501195504 63 52 0.0 4.0 0.00 0.00 0.00 59 1017.0
20260501195004 63 59 0.0 5.0 0.00 0.00 0.00 58 1017.0
20260501194504 64 73 1.0 5.0 0.00 0.00 0.00 57 1017.0
20260501194003 64 52 1.0 5.0 0.00 0.00 0.00 57 1017.0
20260501193504 64 46 1.0 5.0 0.00 0.00 0.00 56 1016.9
20260501193004 64 59 1.0 5.0 0.00 0.00 0.00 56 1016.8
20260501192503 65 66 2.0 5.0 0.00 0.00 0.00 55 1016.7
20260501192004 65 64 2.0 5.0 0.00 0.00 0.00 54 1016.6
20260501191504 66 56 2.0 5.0 0.00 0.00 0.00 55 1016.6
20260501191004 66 55 1.0 7.0 0.00 0.00 0.00 55 1016.6
20260501190503 67 61 2.0 7.0 0.00 0.00 0.00 57 1016.5
20260501190003 67 42 2.0 7.0 0.00 0.00 0.00 57 1016.3
20260501185525 68 44 2.0 7.0 0.00 0.00 0.00 57 1016.2
20260501185003 68 46 2.0 7.0 0.00 0.00 0.00 56 1016.2
20260501184504 68 53 2.0 8.0 0.00 0.00 0.00 56 1016.2
20260501184003 69 67 2.0 8.0 0.00 0.00 0.00 56 1016.0
20260501183503 69 60 2.0 7.0 0.00 0.00 0.00 55 1016.0
20260501183006 70 51 3.0 7.0 0.00 0.00 0.00 54 1015.9
20260501182524 70 44 2.0 7.0 0.00 0.00 0.00 54 1015.9
20260501182003 71 46 2.0 8.0 0.00 0.00 0.00 54 1015.9
20260501181525 71 71 1.0 8.0 0.00 0.00 0.00 54 1015.9
20260501181026 72 113 1.0 7.0 0.00 0.00 0.00 54 1015.9
20260501180504 72 165 1.0 4.0 0.00 0.00 0.00 54 1015.8
20260501180003 72 205 1.0 10.0 0.00 0.00 0.00 54 1015.8
20260501175504 72 229 2.0 10.0 0.00 0.00 0.00 54 1015.8
20260501175004 72 229 2.0 10.0 0.00 0.00 0.00 53 1015.9
20260501174503 72 214 2.0 10.0 0.00 0.00 0.00 53 1015.8
20260501174005 72 205 1.0 8.0 0.00 0.00 0.00 53 1015.8
20260501173503 73 200 0.0 3.0 0.00 0.00 0.00 53 1015.8
20260501173003 73 0 0.0 3.0 0.00 0.00 0.00 52 1015.8
20260501172525 73 199 0.0 3.0 0.00 0.00 0.00 52 1015.7
20260501172003 73 200 1.0 3.0 0.00 0.00 0.00 51 1015.8
20260501171504 73 221 2.0 4.0 0.00 0.00 0.00 50 1015.9
20260501171003 73 207 2.0 5.0 0.00 0.00 0.00 49 1015.9
20260501170504 74 207 3.0 10.0 0.00 0.00 0.00 49 1015.9
20260501170004 74 208 3.0 10.0 0.00 0.00 0.00 48 1015.9
20260501165505 74 201 3.0 10.0 0.00 0.00 0.00 47 1015.9
20260501165004 74 189 3.0 10.0 0.00 0.00 0.00 46 1015.9
20260501164525 74 172 3.0 10.0 0.00 0.00 0.00 47 1015.9
20260501164004 74 207 3.0 8.0 0.00 0.00 0.00 45 1016.0
20260501163505 75 211 3.0 8.0 0.00 0.00 0.00 45 1016.0
20260501163004 75 196 3.0 10.0 0.00 0.00 0.00 45 1015.9
20260501162504 75 187 3.0 10.0 0.00 0.00 0.00 44 1015.9
20260501162004 76 193 3.0 8.0 0.00 0.00 0.00 44 1016.0
20260501161504 76 197 3.0 10.0 0.00 0.00 0.00 43 1015.9
20260501161004 76 197 3.0 11.0 0.00 0.00 0.00 43 1016.0
20260501160504 76 216 3.0 11.0 0.00 0.00 0.00 42 1016.1
20260501160003 77 210 3.0 10.0 0.00 0.00 0.00 42 1016.1
20260501155504 77 199 4.0 10.0 0.00 0.00 0.00 41 1016.2
20260501155004 77 206 3.0 14.0 0.00 0.00 0.00 41 1016.3
20260501154504 77 196 3.0 14.0 0.00 0.00 0.00 41 1016.4
20260501154003 77 162 3.0 11.0 0.00 0.00 0.00 42 1016.5
20260501153503 77 156 3.0 11.0 0.00 0.00 0.00 40 1016.5
20260501153004 77 175 4.0 12.0 0.00 0.00 0.00 40 1016.5
20260501152504 76 189 4.0 12.0 0.00 0.00 0.00 40 1016.6
20260501152004 76 175 5.0 15.0 0.00 0.00 0.00 41 1016.7
20260501151525 76 185 4.0 15.0 0.00 0.00 0.00 41 1016.7
20260501151004 76 201 4.0 16.0 0.00 0.00 0.00 41 1016.8
20260501150503 76 196 4.0 16.0 0.00 0.00 0.00 40 1016.8
20260501150004 76 178 4.0 19.0 0.00 0.00 0.00 38 1016.9
20260501145503 77 173 4.0 19.0 0.00 0.00 0.00 38 1017.0